Flag for Cote d'Ivoire (Ivory Coast) Weather past 2 weeks in Abidjan, Cote d'Ivoire (Ivory Coast)

Now
79 °F

Passing clouds.


Feels Like: 82 °F
Forecast: 77 / 83 °F
Wind: 6 mph from Southwest

Location: Abidjan Airport

Current Time: Oct 22, 2014 at 12:18:21 AM

Latest Report: Oct 22, 2014 at 12:00 AM


Visibility: N/A

Pressure: 29.92 "Hg

Humidity: 89%

Dew point: 75 °F

Location of AbidjanLocation

Historic Weather in Abidjan — Graph

°F

Abidjan temperature yesterday

Maximum temperature yesterday: 84 °F (at 11:00 AM)
Minimum temperature yesterday: 75 °F (at 6:00 AM)
Average temperature yesterday: 80 °F

Past Weeks' High & Low Weather Summary

 TemperatureHumidityPressure
High84 °F (Oct 9, 12:30 PM)100% (Oct 7, 11:30 AM)29.98 "Hg (Oct 7, 11:30 AM)
Low73 °F (Oct 19, 8:30 AM)70% (Oct 10, 12:00 PM)29.80 "Hg (Oct 7, 4:00 PM)
Average79 °F87%29.88 "Hg
* Reported Oct 6 11:00 PM — Oct 21 11:00 PM, Abidjan, Weather by CustomWeather, © 2014

Note: Actual official high and low records may vary slightly from our data, if they occured in-between our weather recording intervals... More about our weather records

Advertising

Abidjan weather history for previous 24 hours

 ConditionsComfort  
Time TempWeatherWind HumidityBarometerVisibility
11:00 PM
Oct 21
79 °FPassing clouds.6 mph89%29.92 "HgN/A
10:30 PM79 °FPassing clouds.7 mph89%29.95 "HgN/A
10:00 PM79 °FPassing clouds.7 mph89%29.95 "HgN/A
9:30 PM79 °FPassing clouds.9 mph89%29.92 "HgN/A
9:00 PM79 °FPassing clouds.9 mph89%29.92 "HgN/A
8:30 PM79 °FPassing clouds.10 mph89%29.89 "HgN/A
8:00 PM79 °FPassing clouds.10 mph89%29.89 "HgN/A
7:30 PM79 °FPassing clouds.9 mph89%29.89 "HgN/A
7:00 PM79 °FPassing clouds.8 mph89%29.86 "HgN/A
6:30 PM81 °FPassing clouds.9 mph84%29.86 "HgN/A
6:00 PM81 °FPassing clouds.9 mph84%29.86 "HgN/A
5:30 PM81 °FPassing clouds.9 mph84%29.83 "HgN/A
5:00 PM82 °FPassing clouds.12 mph79%29.83 "HgN/A
4:30 PM82 °FPassing clouds.13 mph79%29.83 "HgN/A
4:00 PM82 °FPassing clouds.13 mph79%29.83 "HgN/A
3:34 PM84 °FBroken clouds.12 mph74%29.83 "HgN/A
3:00 PM82 °FBroken clouds.14 mph79%29.83 "HgN/A
2:30 PM82 °FScattered clouds.14 mph79%29.83 "HgN/A
2:00 PM82 °FPassing clouds.14 mph79%29.83 "HgN/A
1:30 PM84 °FScattered clouds.13 mph74%29.86 "HgN/A
1:00 PM82 °FScattered clouds.13 mph79%29.86 "HgN/A
12:30 PM84 °FScattered clouds.14 mph74%29.89 "HgN/A
12:00 PM82 °FScattered clouds.13 mph79%29.89 "HgN/A
11:00 AM84 °FScattered clouds.10 mph74%29.92 "HgN/A
10:30 AM82 °FScattered clouds.10 mph79%29.92 "HgN/A
10:00 AM82 °FScattered clouds.9 mph79%29.92 "HgN/A
9:30 AM81 °FBroken clouds.8 mph84%29.92 "HgN/A
9:00 AM81 °FScattered clouds.8 mph84%29.92 "HgN/A
8:30 AM81 °FScattered clouds.7 mph89%29.89 "HgN/A
8:00 AM79 °FBroken clouds.3 mph94%29.89 "Hg6 mi
7:30 AM77 °FPartly sunny.1 mph100%29.89 "Hg5 mi
7:00 AM77 °FBroken clouds.2 mph94%29.89 "Hg5 mi
6:30 AM75 °FPartly sunny.1 mph100%29.86 "Hg5 mi
6:00 AM75 °FPassing clouds.No wind100%29.86 "Hg5 mi
5:30 AM77 °FPassing clouds.2 mph94%29.86 "HgN/A
5:00 AM77 °FPassing clouds.2 mph94%29.83 "HgN/A
4:30 AM77 °FPassing clouds.2 mph94%29.83 "HgN/A
4:00 AM77 °FPassing clouds.2 mph94%29.83 "HgN/A
3:00 AM77 °FPassing clouds.1 mph94%29.83 "HgN/A
2:30 AM77 °FPassing clouds.2 mph94%29.83 "HgN/A
2:00 AM77 °FPassing clouds.3 mph94%29.83 "HgN/A
1:30 AM77 °FPassing clouds.6 mph94%29.83 "HgN/A
1:00 AM77 °FPassing clouds.6 mph94%29.86 "HgN/A
12:30 AM77 °FPassing clouds.6 mph94%29.86 "HgN/A
12:00 AM77 °FPassing clouds.6 mph94%29.89 "HgN/A
Weather by CustomWeather, © 2014

See weather overviewHow to use our weather pages